STARLINK-32643, 62233

Orbit data source: Space-Track

STARLINK-32643, 62233 is a payload satellite owned by SpaceX/Seattle (US) in LEO that was launched on Thu, 05 Dec 2024 UTC via an FALCON 9 launch vehicle from the Air Force Western Test Range (AFWTR). Payload-class satellites include a variety of spacecraft equipped with specific instruments for various scientific and technological missions. These include communications satellites like Starlink; space stations such as the ISS; scientific satellites like the Hubble; Earth observation satellites from companies like Planet Labs, Umbra, and HawkEye 360; GPS; miniature CubeSats for education and research; and military/defense satellites.

Loading next visibility...
Identifier
62233, 2024-231R
Orbit
LEO
Country
Flag of USUS
Related business
Manufacturer
SpaceX/Seattle
Mission
Operational Commercial Communications
Bus & Motor
STARLINK V2M, Unknown motor
Mass
730 kg wet, ~700 kg dry
Launch date (UTC)
2024-12-05 (1 year ago)
Launch vehicle
FALCON 9
Launch site
Air Force Western Test Range (AFWTR)
Object type
Payload
Rocket body
Debris
Shape & HBR
Box + 2 Pan, 17.7 m
Radar Cross Section
33.884 m², Large (>1 m²)

Expand to show TLE details & history
Last TLE update: 15 hours ago

TLE from 15 hours ago
0 STARLINK-32643
1 62233U 24231R   26035.28215771  .00007202  00000-0  25534-3 0  9990
2 62233  53.1624   2.0155 0001357  96.1319 263.9836 15.30160524 66823
Epoch: 2026-02-04T06:46Z
TLE epoch observation values (Epoch: 2026-02-04T06:46:18.426Z)
Latitude
-0.00004°
Longitude
125.98772°
Altitude
476.33 km
Speed
7.629 km/s
True Right ascension
00h 08m 03s
True Declination
0° 00' 00"
Sunlit
Object was in daylight at epoch
Visualization orbit readout
Latitude
Unknown
Longitude
Unknown
Altitude
Unknown
Speed
Unknown
Apparent Right ascension
Unknown
Apparent Declination
Unknown
Sunlit
N/A
Visualization observer readout
Local Sidereal Time
23:59:16
Azimuth
Unknown
Elevation
Unknown
Doppler factor
Unknown
Orbital elements
Apogee altitude
476.519 km
Perigee altitude
474.659 km
Semi-major axis
6,853.726 km
Eccentricity
0.00014
Inclination
53.1624°
RAAN
2.0155°
Arg. of periapsis
96.1319°
True anomaly
263.96814°
Mean anomaly
263.9836°
Eccentric anomaly
263.97587°
Mean motion
3.82519 °/min
Orbital period
94.11 mins
BSTAR
0.00025534
Loading maneuver chart data...
Computing Atmospheric mass density...
Loading historical data...
Loading historical data...
Loading historical data...
Loading historical data...
Loading historical data...
Loading historical data...
Loading historical data...

Documentation

Showing up to 5 results
|